| time (UTC) | temp F | wind direction | speed MPH | gust MPH | rain 1hr in | rain 24hr in | rain mn in | humidity % | barometer mb |
| 20260507063008 | 51 | 201 | 6.0 | 9.0 | 0.00 | 0.00 | 0.00 | 89 | 1021.1 |
| 20260507061506 | 50 | 232 | 5.0 | 10.0 | 0.00 | 0.00 | 0.00 | 89 | 1021.2 |
| 20260507060015 | 51 | 215 | 6.0 | 10.0 | 0.00 | 0.00 | 0.00 | 89 | 1021.2 |
| 20260507054503 | 51 | 223 | 6.0 | 10.0 | 0.00 | 0.00 | 0.00 | 89 | 1021.2 |
| 20260507051602 | 51 | 248 | 4.0 | 7.0 | 0.00 | 0.00 | 0.00 | 89 | 1021.3 |
| 20260507050059 | 52 | 234 | 5.0 | 9.0 | 0.00 | 0.00 | 0.00 | 87 | 1021.3 |
| 20260507044558 | 52 | 205 | 5.0 | 10.0 | 0.00 | 0.00 | 0.00 | 86 | 1021.2 |
| 20260507043056 | 52 | 244 | 6.0 | 14.0 | 0.00 | 0.00 | 0.00 | 84 | 1021.2 |
| 20260507041556 | 53 | 236 | 5.0 | 10.0 | 0.00 | 0.00 | 0.00 | 82 | 1021.1 |
| 20260507040055 | 53 | 244 | 7.0 | 13.0 | 0.00 | 0.00 | 0.00 | 81 | 1021.0 |
| 20260507034556 | 53 | 226 | 7.0 | 14.0 | 0.00 | 0.00 | 0.00 | 81 | 1021.0 |
| 20260507033053 | 53 | 232 | 5.0 | 10.0 | 0.00 | 0.00 | 0.00 | 81 | 1020.8 |
| 20260507031552 | 53 | 216 | 7.0 | 13.0 | 0.00 | 0.00 | 0.00 | 80 | 1020.7 |
| 20260507030052 | 54 | 234 | 8.0 | 12.0 | 0.00 | 0.00 | 0.00 | 79 | 1020.5 |
| 20260507024603 | 54 | 236 | 6.0 | 12.0 | 0.00 | 0.00 | 0.00 | 79 | 1020.5 |
| 20260507023051 | 54 | 202 | 7.0 | 12.0 | 0.00 | 0.00 | 0.00 | 78 | 1020.4 |
| 20260507021550 | 54 | 219 | 8.0 | 16.0 | 0.00 | 0.00 | 0.00 | 78 | 1020.4 |
| 20260507020106 | 55 | 217 | 7.0 | 15.0 | 0.00 | 0.00 | 0.00 | 77 | 1020.4 |
| 20260507014602 | 55 | 250 | 8.0 | 15.0 | 0.00 | 0.00 | 0.00 | 76 | 1020.3 |
| 20260507013051 | 55 | 223 | 7.0 | 11.0 | 0.00 | 0.00 | 0.00 | 76 | 1020.4 |
| 20260507011548 | 55 | 216 | 9.0 | 14.0 | 0.00 | 0.00 | 0.00 | 75 | 1020.4 |
| 20260507010047 | 55 | 216 | 8.0 | 15.0 | 0.00 | 0.00 | 0.00 | 75 | 1020.4 |
| 20260507004547 | 56 | 203 | 8.0 | 17.0 | 0.00 | 0.00 | 0.00 | 76 | 1020.5 |
| 20260507003046 | 56 | 240 | 7.0 | 14.0 | 0.00 | 0.00 | 0.00 | 76 | 1020.4 |
| 20260507001548 | 56 | 242 | 9.0 | 15.0 | 0.00 | 0.00 | 0.00 | 75 | 1020.5 |
| 20260507000046 | 56 | 195 | 5.0 | 13.0 | 0.00 | 0.00 | 0.00 | 75 | 1020.5 |
| 20260506234552 | 56 | 215 | 10.0 | 15.0 | 0.00 | 0.00 | 0.00 | 74 | 1020.5 |
| 20260506233045 | 56 | 234 | 9.0 | 15.0 | 0.00 | 0.00 | 0.00 | 74 | 1020.5 |
| 20260506231552 | 57 | 254 | 9.0 | 13.0 | 0.00 | 0.00 | 0.00 | 72 | 1020.5 |
| 20260506230054 | 56 | 230 | 9.0 | 19.0 | 0.00 | 0.00 | 0.00 | 72 | 1020.5 |
| 20260506224542 | 57 | 254 | 8.0 | 17.0 | 0.00 | 0.00 | 0.00 | 73 | 1020.6 |
| 20260506223051 | 57 | 239 | 10.0 | 17.0 | 0.00 | 0.00 | 0.00 | 72 | 1020.6 |
| 20260506221540 | 56 | 223 | 7.0 | 16.0 | 0.00 | 0.00 | 0.00 | 74 | 1020.8 |
| 20260506220039 | 55 | 238 | 11.0 | 17.0 | 0.00 | 0.00 | 0.00 | 74 | 1020.8 |
| 20260506214538 | 55 | 211 | 6.0 | 15.0 | 0.00 | 0.00 | 0.00 | 76 | 1020.9 |
| 20260506213052 | 56 | 236 | 8.0 | 17.0 | 0.00 | 0.00 | 0.00 | 74 | 1020.9 |
| 20260506211548 | 55 | 252 | 8.0 | 17.0 | 0.00 | 0.00 | 0.00 | 75 | 1020.9 |
| 20260506210036 | 55 | 227 | 9.0 | 13.0 | 0.00 | 0.00 | 0.00 | 74 | 1020.9 |
| 20260506204545 | 55 | 227 | 9.0 | 16.0 | 0.00 | 0.00 | 0.00 | 74 | 1020.8 |
| 20260506203033 | 55 | 256 | 8.0 | 15.0 | 0.00 | 0.00 | 0.00 | 75 | 1020.7 |
| 20260506201535 | 55 | 242 | 8.0 | 16.0 | 0.00 | 0.00 | 0.00 | 75 | 1020.6 |
| 20260506200029 | 55 | 248 | 8.0 | 14.0 | 0.00 | 0.00 | 0.00 | 76 | 1020.5 |
| 20260506194530 | 55 | 252 | 7.0 | 14.0 | 0.00 | 0.00 | 0.00 | 76 | 1020.5 |
| 20260506193025 | 55 | 257 | 8.0 | 12.0 | 0.00 | 0.00 | 0.00 | 77 | 1020.5 |
| 20260506191524 | 54 | 190 | 9.0 | 11.0 | 0.00 | 0.00 | 0.00 | 78 | 1020.3 |
| 20260506190022 | 54 | 232 | 9.0 | 12.0 | 0.00 | 0.00 | 0.00 | 80 | 1020.4 |
| 20260506184521 | 53 | 194 | 8.0 | 11.0 | 0.00 | 0.00 | 0.00 | 81 | 1020.4 |
| 20260506183028 | 53 | 274 | 7.0 | 11.0 | 0.00 | 0.00 | 0.00 | 82 | 1020.5 |
| 20260506181516 | 53 | 234 | 6.0 | 10.0 | 0.00 | 0.00 | 0.00 | 82 | 1020.3 |
| 20260506180014 | 53 | 201 | 6.0 | 11.0 | 0.00 | 0.00 | 0.00 | 85 | 1020.1 |
| 20260506174512 | 52 | 231 | 5.0 | 11.0 | 0.00 | 0.00 | 0.00 | 87 | 1020.3 |
| 20260506173011 | 52 | 234 | 8.0 | 11.0 | 0.00 | 0.00 | 0.00 | 88 | 1020.2 |
| 20260506171510 | 52 | 232 | 5.0 | 14.0 | 0.00 | 0.00 | 0.00 | 89 | 1020.3 |
| 20260506170008 | 52 | 218 | 6.0 | 12.0 | 0.00 | 0.00 | 0.00 | 90 | 1020.1 |
| 20260506164508 | 52 | 206 | 7.0 | 10.0 | 0.00 | 0.00 | 0.00 | 94 | 1020.2 |
| 20260506163008 | 51 | 219 | 6.0 | 9.0 | 0.00 | 0.00 | 0.00 | 97 | 1019.8 |
| 20260506161507 | 51 | 188 | 4.0 | 7.0 | 0.00 | 0.00 | 0.00 | 97 | 1019.7 |
| 20260506160005 | 51 | 221 | 3.0 | 7.0 | 0.00 | 0.00 | 0.00 | 97 | 1019.8 |
| 20260506154503 | 51 | 243 | 3.0 | 8.0 | 0.00 | 0.00 | 0.00 | 97 | 1019.9 |
| 20260506153001 | 51 | 220 | 3.0 | 8.0 | 0.00 | 0.00 | 0.00 | 97 | 1020.0 |
| 20260506151605 | 50 | 218 | 6.0 | 9.0 | 0.00 | 0.00 | 0.00 | 97 | 1019.6 |
| 20260506150100 | 50 | 186 | 4.0 | 9.0 | 0.00 | 0.00 | 0.00 | 96 | 1019.7 |
| 20260506144658 | 51 | 229 | 4.0 | 9.0 | 0.00 | 0.00 | 0.00 | 96 | 1019.8 |
| 20260506143102 | 51 | 252 | 3.0 | 8.0 | 0.00 | 0.00 | 0.00 | 96 | 1019.5 |
| 20260506141554 | 51 | 229 | 3.0 | 9.0 | 0.00 | 0.00 | 0.00 | 95 | 1019.4 |
| 20260506140053 | 51 | 179 | 4.0 | 7.0 | 0.00 | 0.00 | 0.00 | 95 | 1019.5 |
| 20260506134652 | 51 | 209 | 6.0 | 9.0 | 0.00 | 0.00 | 0.00 | 94 | 1019.1 |
| 20260506133051 | 51 | 234 | 5.0 | 10.0 | 0.00 | 0.00 | 0.00 | 93 | 1019.2 |
| 20260506131546 | 51 | 239 | 5.0 | 9.0 | 0.00 | 0.00 | 0.00 | 92 | 1019.1 |
| 20260506130045 | 51 | 240 | 6.0 | 8.0 | 0.00 | 0.00 | 0.00 | 92 | 1019.0 |
| 20260506124543 | 51 | 221 | 5.0 | 8.0 | 0.00 | 0.00 | 0.00 | 92 | 1018.8 |
| 20260506123041 | 51 | 230 | 4.0 | 9.0 | 0.00 | 0.00 | 0.00 | 92 | 1018.7 |
| 20260506121540 | 51 | 196 | 4.0 | 7.0 | 0.00 | 0.00 | 0.00 | 92 | 1018.7 |
| 20260506120043 | 51 | 211 | 4.0 | 7.0 | 0.00 | 0.00 | 0.00 | 92 | 1018.8 |
| 20260506114538 | 51 | 172 | 3.0 | 8.0 | 0.00 | 0.00 | 0.00 | 92 | 1018.4 |
| 20260506113037 | 51 | 190 | 5.0 | 8.0 | 0.00 | 0.00 | 0.00 | 91 | 1018.5 |
| 20260506111535 | 51 | 221 | 5.0 | 9.0 | 0.00 | 0.00 | 0.00 | 90 | 1018.5 |
| 20260506110033 | 51 | 215 | 6.0 | 9.0 | 0.00 | 0.00 | 0.00 | 90 | 1018.4 |
| 20260506104533 | 52 | 248 | 5.0 | 9.0 | 0.00 | 0.00 | 0.00 | 89 | 1018.3 |
| 20260506103037 | 52 | 227 | 4.0 | 8.0 | 0.00 | 0.00 | 0.00 | 89 | 1018.2 |
| 20260506101530 | 52 | 250 | 4.0 | 9.0 | 0.00 | 0.00 | 0.00 | 89 | 1018.1 |
| 20260506100029 | 52 | 211 | 3.0 | 7.0 | 0.00 | 0.00 | 0.00 | 88 | 1017.8 |
| 20260506094527 | 52 | 207 | 4.0 | 7.0 | 0.00 | 0.00 | 0.00 | 88 | 1017.7 |
| 20260506093026 | 52 | 234 | 4.0 | 7.0 | 0.00 | 0.00 | 0.00 | 88 | 1017.7 |
| 20260506091525 | 52 | 234 | 4.0 | 8.0 | 0.00 | 0.00 | 0.00 | 89 | 1017.7 |
| 20260506090040 | 51 | 210 | 6.0 | 10.0 | 0.00 | 0.00 | 0.00 | 89 | 1017.6 |
| 20260506084524 | 51 | 203 | 7.0 | 11.0 | 0.00 | 0.00 | 0.00 | 89 | 1017.5 |
| 20260506083020 | 52 | 202 | 8.0 | 12.0 | 0.00 | 0.00 | 0.00 | 88 | 1017.4 |
| 20260506081518 | 52 | 206 | 7.0 | 10.0 | 0.00 | 0.00 | 0.00 | 88 | 1017.4 |
| 20260506073011 | 52 | 222 | 3.0 | 5.0 | 0.00 | 0.00 | 0.00 | 86 | 1017.1 |
| 20260506071509 | 53 | 240 | 3.0 | 6.0 | 0.00 | 0.00 | 0.00 | 86 | 1017.0 |